Zorg en Hoop Airport

Jump to: basic info | weather | comments

Related pages: nearby airports | nearby navaids | notams | map

Basic information (top)

Codes: ORG SMZO
Location: lon 5.811080, lat -55.190701, elev 10 ft / 3 m msl
Status: small_airport

Weather (top)

Current conditions (rec'd 2014/07/24 00:00Z):

SMZO 240000Z 09008KT 9999 FEW012 27/24 Q1014 NOSIG

Airport forecast (rec'd 2014/07/21 18:27Z):

TAF TAF SMZO 211600Z 2118/2218 10008KT 9999 FEW018CB BKN025 TX32/2217Z TN24/2210Z 
      TEMPO 2118/2123 VRB12G25KT 2000 TSRA SCT015CB BKN018 
      BECMG 2201/2202 00000KT 
     FM221200 11010KT 9999 SCT020

Latest comments (top)

KLM flights from Caracas - Paramaribo - Dakar - Madrid - fra: I would like to know if this airport ... [read]

More... (top)

See also NOTAMs and nearby airports and navaids, or visit the Zorg en Hoop Airport page at the main OurAirports website..